Date,TemperatureHighC,TemperatureAvgC,TemperatureLowC,DewpointHighC,DewpointAvgC,DewpointLowC,HumidityHigh,HumidityAvg,HumidityLow,PressureMaxhPa,PressureMinhPa,WindSpeedMaxKMH,WindSpeedAvgKMH,GustSpeedMaxKMH,PrecipitationSumCM
2020-1-1,4.6,1.8,-0.9,4.2,1.4,-1.5,98,98,97,1030.6,1028.3,2.1,1.4,9,0.3
2020-1-2,9.1,8.7,7.2,8.3,7.6,6.9,98,94.6,92,1025.6,1022.3,4,1.8,11.9,2.6
2020-1-3,11.6,9.5,8,9.2,7.6,6,94,90.7,85,1031.2,1020.1,5,2.3,16.9,0.4
2020-1-4,9.3,5.8,1.2,5.7,3.7,0.4,97,89.6,79,1036.1,1031.4,4,1.2,11.1,0.1
2020-1-5,8.8,7,3.7,6.2,4.5,1.2,95,88,76,1036.1,1031.3,2.1,1.3,10.1,0.0
2020-1-6,7.6,3.4,-0.8,5.7,1.6,-1.6,97,91,76,1031.2,1021.5,10.1,1.8,20.9,0.5
2020-1-7,10,7.4,4.1,9.2,6.5,3.1,97,95.5,94,1029.0,1025.3,2.1,1.3,11.9,0.1
2020-1-8,12.2,11.5,10.2,10.8,10.2,9.4,96,93.7,93,1026.2,1022.2,4,2,15.1,0.0
2020-1-9,11.8,11.2,10.1,10.3,9.5,7.8,94,92,89,1022.2,1009.2,5,3.6,27,2.5
2020-1-10,10,7.8,4.6,8,6,3.2,95,91.1,84,1032.3,1009.0,5,2.2,18,3.6
2020-1-11,8.1,3.9,1.3,3.1,1.7,0.3,97,89.6,71,1033.0,1027.8,7.9,1.8,15.1,0.0
2020-1-12,8.7,6.4,1.5,7.1,4.6,0.3,95,91.2,86,1027.6,1024.0,5,2.4,23,0.0
2020-1-13,9.8,8.4,6.3,8,6.7,4.6,95,91.7,76,1024.1,1008.6,5,2.9,23,0.3
2020-1-14,11.9,10.2,9,7.7,5.4,3.5,88,77,69,1011.0,1005.9,7.9,5,33.8,0.1
2020-1-15,12.7,9.8,4.8,9.1,6,3.8,95,82.2,70,1022.7,1009.9,6.1,3,29.9,0.6
2020-1-16,14.3,7.5,1.7,8.4,4.9,0.9,97,87.4,70,1023.5,1016.2,11.1,2.5,20.9,0.1
2020-1-17,11.6,8.5,3,8.1,5.4,1.6,94,85.4,67,1023.6,1014.0,6.1,2.7,23,4.0
2020-1-18,9.6,4.2,0.8,4.5,1.9,-0.2,96,88.5,75,1031.4,1023.6,4,1.5,15.1,0.0
2020-1-19,7.3,3.5,-0.5,2.7,0.7,-1.3,97,86.5,70,1044.3,1031.5,11.1,3.8,24.1,0.1
2020-1-20,7.1,3.7,0.8,1.2,0.5,-0.7,94,84.2,68,1045.7,1042.2,7.9,3.5,25.9,0.0
2020-1-21,5.9,0.8,-2.3,0.7,-1.4,-3.1,97,89.3,68,1042.1,1036.8,7.9,1.9,15.8,0.0
2020-1-22,5.6,0,-3.5,0.4,-2.3,-4.3,97,88.9,70,1037.1,1031.8,11.1,2.2,19.2,0.1
2020-1-23,4.6,0.7,-1.7,0.4,-1.3,-2.7,96,89.8,78,1032.3,1023.6,7.9,2.5,15.8,0.0
2020-1-24,5.6,0.6,-2.4,1,-1.3,-3.2,97,90.9,76,1023.7,1020.7,4,1.4,7.9,0.0
2020-1-25,5.7,1,-2.5,3.7,0.1,-3.3,98,95.2,90,1021.3,1016.3,4,1.3,7.9,0.0
2020-1-26,8.5,4.4,-0.1,7,3.4,-0.7,98,95.1,90,1016.2,1012.9,4,1.6,19.2,0.9
2020-1-27,8.9,8.5,7.6,7.6,7,5.6,94,92.4,89,1012.8,999.5,6.1,3.9,24.8,6.7
2020-1-28,8.2,6.6,4.6,6.3,2.9,0.6,93,82.1,70,1006.8,995.9,6.1,3.9,33.8,2.3
2020-1-29,10.1,6.4,3.4,4.8,3.4,2.1,95,85.5,73,1016.3,1007.1,4,2.3,20.9,0.0
2020-1-30,13.1,7.8,1.7,11.5,6.7,0.8,97,94.1,90,1015.8,1006.3,5,2.5,23,2.7
2020-1-31,13.4,12.1,11.2,10.7,10.2,9.9,94,90.6,85,1014.1,1009.9,4,3,20.9,0.3
2020-2-1,14.2,12.4,11,11.3,10.2,8.5,94,89.3,78,1014.9,1005.4,9,3.5,29.9,10.8
2020-2-2,15.4,13,10.9,13,11.4,9.5,95,92.3,88,1015.7,1008.7,5,3.2,19.2,10.8
2020-2-3,12.1,10.1,7.2,11.3,9,6,96,94.4,92,1015.9,1011.2,9,4.3,24.1,11.5
2020-2-4,9.7,7.1,5,5.4,3.4,1.3,94,82.5,62,1030.5,1014.1,9,3.4,24.8,0.7
2020-2-5,9.5,6.4,2.1,4.9,3.1,0.7,93,83.7,69,1036.2,1030.7,5,1.6,14,0.0
2020-2-6,10.9,4.4,-0.7,3.5,-0.7,-3.7,97,76,37,1033.9,1025.1,6.1,2,19.2,0.0
2020-2-7,11.1,4.9,-1.1,5.5,1.1,-2.8,93,81.5,61,1025.1,1019.0,4,1.7,15.1,0.0
2020-2-8,10.3,8.7,6.1,7.7,6.2,4.3,94,87.8,81,1021.0,1018.0,4,2,15.8,1.5
2020-2-9,13.4,10,7,11.2,7.7,5.4,95,88.8,77,1019.3,999.7,10.1,6,41,2.8
2020-2-10,13.6,10.5,7.3,10.7,5.5,2.9,91,76.5,61,1012.2,999.7,9,5.1,39.9,7.1
2020-2-11,9.7,6.6,4.3,3.7,2.2,0.7,87,78.9,60,1018.3,1009.1,6.1,3.6,36,0.8
2020-2-12,10.2,6.1,2.9,3.6,2,0.5,91,80.3,60,1019.6,1015.9,5,2.3,18,0.0
2020-2-13,12.7,8.4,4.6,7.1,4.5,2.5,92,81,59,1015.9,998.6,11.1,3.7,38.1,3.6
2020-2-14,11.7,9.3,7,6.1,5.6,4.6,89,82.2,70,1022.7,1012.5,4,2,14,0.0
2020-2-15,13.5,9.8,5.1,8.1,6.3,3.5,93,83.4,72,1021.7,1012.2,6.1,3.1,24.8,0.8
2020-2-16,17.7,13.7,8.6,11.2,8.7,6.9,92,76.5,68,1012.9,1005.1,9,5.6,48.9,5.3
2020-2-17,8.5,8.1,5.8,6.9,6.2,2.5,93,90.7,83,1023.7,1013.2,5,2.8,14,1.0
2020-2-18,11,7.2,3.1,4.6,3.1,1.6,93,80.2,64,1027.4,1021.0,6.1,3.4,29.1,0.0
2020-2-19,10.2,7.1,4.3,6.3,4.7,3,94,88.4,70,1025.4,1019.6,10.1,2.5,24.1,7.6
2020-2-20,11,8.1,4,7.9,5.7,2.7,94,88.4,79,1024.7,1014.6,10.1,3.8,20.1,3.0
2020-2-21,10.3,5.6,0.8,4.7,2,-0.2,97,82.7,62,1030.5,1025.1,9,3.3,24.8,0.0
2020-2-22,13.1,9.1,4.4,8.3,5.2,1.9,89,81.5,72,1028.1,1024.0,6.1,3.3,23,0.0
2020-2-23,12.6,11,9.3,10.4,8.9,7.6,94,89.9,86,1027.4,1022.4,6.1,3.7,23,0.5
2020-2-24,12.7,11.3,9.6,10,8.6,6.8,94,87.2,76,1025.4,1010.5,6.1,4,25.9,0.2
2020-2-25,11,8.1,4.4,8,5.1,1,94,85.4,66,1010.5,1001.0,6.1,3.5,28,7.1
2020-2-26,8.2,4.6,1.9,3.2,1.1,-0.1,93,82.9,68,1011.2,1000.7,6.1,3.1,24.1,1.3
2020-2-27,11.7,5.2,1.3,9.5,2.4,-0.3,96,86.6,70,1016.3,988.8,18,4.1,30.9,10.4
2020-2-28,10.8,4.9,-0.7,8.9,2.9,-1.7,96,90.1,75,1017.6,1004.7,5,2.8,28,0.5
2020-2-29,12.6,9.2,6.1,8.7,5.5,2.2,91,82.2,61,1004.4,989.8,9,4.4,34.9,3.3
2020-3-1,8.8,5.8,2.1,6.2,3.7,0.7,96,89.8,83,997.8,987.8,13,4.5,38.1,14.8
2020-3-2,9.5,6.4,3.5,7.2,4.4,1.1,94,90.3,82,1001.0,985.7,7.9,2.8,20.9,8.1
2020-3-3,9.5,4.2,0.5,3.9,1.4,-0.6,96,86.2,62,1011.7,1001.0,11.1,2.1,20.9,0.0
2020-3-4,7.9,4.9,0.8,6.9,3.3,-0.4,96,92.4,83,1012.4,1003.2,5,2.1,18,1.4
2020-3-5,11.9,8.8,5.9,9.9,7.4,4.1,96,93,86,1003.0,981.0,9,3.4,33.2,18.3
2020-3-6,10.6,6.8,3.8,4.5,3,0.9,91,81.5,62,1013.5,992.6,6.1,2.6,20.1,0.2
2020-3-7,11.6,7.8,0.6,5.9,3.4,-0.6,96,79.3,62,1020.5,1013.6,4,2.2,15.1,0.0
2020-3-8,11,8.6,5.9,9.1,6.5,4.1,93,89.5,85,1019.2,1010.1,6.1,3.6,29.1,3.3
2020-3-9,11.9,8.2,4.1,6.5,4.3,2.7,94,81.4,60,1018.2,1012.2,10.1,2.8,24.1,1.0
2020-3-10,14.8,12,6.9,11.9,9.9,5.3,94,89.9,85,1016.4,1011.1,6.1,4.1,25.9,2.6
2020-3-11,16.7,14.2,11.8,11,10.1,7.7,91,81.2,70,1017.1,1013.8,6.1,4,28,0.0
2020-3-12,13.6,10.8,6.4,9.9,5.3,0,92,74.2,49,1018.7,1012.0,5,3.1,24.1,2.5
2020-3-13,12.8,7.8,3.1,4.1,1.8,0.3,89,71.6,49,1022.3,1018.8,5,2.1,14,0.0
2020-3-14,11.7,8.6,6.1,8.3,5.6,2.5,92,85.4,76,1019.9,1016.7,5,2.3,15.1,0.9
2020-3-15,16.6,10.5,6.6,7.7,6.1,4.6,92,79,51,1016.7,1008.7,5,2.4,19.2,0.0
2020-3-16,11.5,8.8,5.2,7.7,6.3,3.8,93,87.7,79,1026.3,1011.3,5,1.7,11.1,0.1
2020-3-17,15.6,11.3,8.7,9.1,7.6,6.3,90,82.4,69,1030.5,1026.3,4,2,14,0.0
2020-3-18,18.1,12.4,8.3,10.1,8.3,6.5,92,80.7,55,1029.1,1023.9,4,1.7,9,0.0
2020-3-19,20.3,12.7,4.8,10.1,7.5,3.6,95,76.4,49,1023.9,1019.1,5,2,11.1,0.0
2020-3-20,17.4,12.9,8.9,9.8,8,5.4,84,77,61,1020.6,1019.0,7.9,4.8,25.9,0.0
2020-3-21,8.7,7.8,6.7,5.2,3.9,2,88,81.4,72,1021.6,1017.4,9,5.5,29.9,0.0
2020-3-22,10.9,8.3,5.6,2.5,0.2,-3.9,76,61.5,42,1023.8,1017.4,10.1,6.5,33.2,0.3
2020-3-23,11.4,6.6,1.5,-1.5,-3.8,-5.8,64,50,37,1026.2,1023.8,10.1,4.5,28,0.0
2020-3-24,13.4,6.8,-0.1,-2,-5.2,-6.9,66,42.9,25,1027.0,1023.2,7.9,2.8,20.1,0.0
2020-3-25,12.7,6.8,-0.9,-1.9,-4.7,-6.8,75,45.3,24,1024.2,1018.1,6.1,2.9,20.1,0.0
2020-3-26,11.1,6.9,2.9,-2.9,-5.2,-7.7,66,42.3,33,1018.3,1016.6,7.9,3.9,24.1,0.0
2020-3-27,14.1,7,-0.1,1.7,-0.9,-4.1,84,62.9,41,1018.7,1016.3,6.1,2.3,18,0.0
2020-3-28,17,9.2,1.7,6,2.9,-0.1,92,70.5,49,1024.6,1018.4,7.9,2.9,24.1,0.0
2020-3-29,8.9,6.7,4.7,2.2,-1.6,-4.2,76,60.2,38,1028.0,1024.8,11.1,7,46,0.0